| time (UTC) | temp F | wind direction | speed MPH | gust MPH | rain 1hr in | rain 24hr in | rain mn in | humidity % | barometer mb |
| 20260507124530 | 49 | 325 | 5.0 | 11.0 | 0.00 | 0.96 | 0.24 | 83 | 1005.0 |
| 20260507123030 | 49 | 294 | 9.0 | 15.0 | 0.00 | 0.96 | 0.24 | 84 | 1004.8 |
| 20260507121530 | 48 | 313 | 8.0 | 10.0 | 0.00 | 0.96 | 0.24 | 86 | 1004.8 |
| 20260507120030 | 48 | 323 | 4.0 | 9.0 | 0.00 | 0.96 | 0.24 | 86 | 1004.8 |
| 20260507114531 | 47 | 291 | 4.0 | 8.0 | 0.00 | 0.96 | 0.24 | 89 | 1005.4 |
| 20260507113030 | 47 | 294 | 4.0 | 8.0 | 0.00 | 0.96 | 0.24 | 88 | 1005.7 |
| 20260507111530 | 47 | 271 | 4.0 | 11.0 | 0.00 | 0.96 | 0.24 | 87 | 1005.9 |
| 20260507110030 | 47 | 287 | 8.0 | 13.0 | 0.00 | 0.96 | 0.24 | 86 | 1005.6 |
| 20260507104531 | 47 | 284 | 8.0 | 14.0 | 0.00 | 0.96 | 0.24 | 87 | 1005.6 |
| 20260507103031 | 46 | 295 | 8.0 | 14.0 | 0.00 | 0.96 | 0.24 | 88 | 1004.8 |
| 20260507101528 | 47 | 269 | 9.0 | 16.0 | 0.00 | 0.96 | 0.24 | 88 | 1004.6 |
| 20260507100036 | 47 | 317 | 10.0 | 15.0 | 0.00 | 0.96 | 0.24 | 88 | 1004.2 |
| 20260507094528 | 47 | 294 | 10.0 | 15.0 | 0.00 | 0.96 | 0.24 | 90 | 1004.1 |
| 20260507093028 | 47 | 320 | 13.0 | 18.0 | 0.00 | 0.96 | 0.24 | 89 | 1004.0 |
| 20260507091535 | 47 | 310 | 11.0 | 16.0 | 0.00 | 0.96 | 0.24 | 89 | 1004.6 |
| 20260507090028 | 47 | 294 | 11.0 | 18.0 | 0.00 | 0.96 | 0.24 | 91 | 1004.5 |
| 20260507084530 | 48 | 283 | 8.0 | 14.0 | 0.00 | 0.96 | 0.24 | 93 | 1004.2 |
| 20260507083028 | 48 | 312 | 9.0 | 13.0 | 0.00 | 0.96 | 0.24 | 92 | 1003.9 |
| 20260507081530 | 48 | 306 | 10.0 | 16.0 | 0.00 | 0.96 | 0.24 | 92 | 1003.7 |
| 20260507080031 | 48 | 309 | 13.0 | 19.0 | 0.01 | 0.96 | 0.24 | 92 | 1003.9 |
| 20260507074528 | 48 | 306 | 8.0 | 14.0 | 0.01 | 0.96 | 0.24 | 93 | 1003.7 |
| 20260507073031 | 48 | 297 | 9.0 | 15.0 | 0.01 | 0.96 | 0.24 | 93 | 1003.6 |
| 20260507071533 | 49 | 300 | 12.0 | 20.0 | 0.01 | 0.96 | 0.24 | 94 | 1003.7 |
| 20260507070033 | 49 | 303 | 8.0 | 12.0 | 0.01 | 0.95 | 0.23 | 94 | 1003.3 |
| 20260507064550 | 49 | 307 | 10.0 | 14.0 | 0.13 | 0.95 | 0.23 | 94 | 1003.4 |
| 20260507063034 | 49 | 282 | 10.0 | 17.0 | 0.22 | 0.95 | 0.23 | 95 | 1003.5 |
| 20260507061530 | 49 | 314 | 10.0 | 13.0 | 0.22 | 0.95 | 0.23 | 96 | 1003.3 |
| 20260507060030 | 49 | 319 | 7.0 | 15.0 | 0.21 | 0.94 | 0.22 | 97 | 1003.0 |
| 20260507054527 | 49 | 228 | 6.0 | 11.0 | 0.09 | 0.82 | 0.10 | 96 | 1004.2 |
| 20260507053030 | 49 | 202 | 5.0 | 10.0 | 0.00 | 0.73 | 0.01 | 96 | 1003.2 |
| 20260507051528 | 49 | 221 | 5.0 | 16.0 | 0.00 | 0.73 | 0.01 | 96 | 1003.2 |
| 20260507050039 | 50 | 196 | 5.0 | 23.0 | 0.01 | 0.73 | 0.01 | 96 | 1003.3 |
| 20260507044532 | 50 | 188 | 7.0 | 15.0 | 0.01 | 0.73 | 0.01 | 96 | 1003.0 |
| 20260507043030 | 50 | 188 | 7.0 | 13.0 | 0.01 | 0.73 | 0.01 | 96 | 1002.8 |
| 20260507041529 | 50 | 150 | 7.0 | 12.0 | 0.01 | 0.73 | 0.01 | 96 | 1003.2 |
| 20260507040030 | 50 | 169 | 6.0 | 18.0 | 0.00 | 0.72 | 0.00 | 96 | 1003.5 |
| 20260507034530 | 50 | 171 | 9.0 | 19.0 | 0.00 | 0.72 | 0.72 | 96 | 1003.5 |
| 20260507033028 | 51 | 167 | 9.0 | 18.0 | 0.03 | 0.72 | 0.72 | 95 | 1003.5 |
| 20260507031533 | 51 | 191 | 8.0 | 20.0 | 0.10 | 0.72 | 0.72 | 96 | 1003.7 |
| 20260507030035 | 52 | 216 | 11.0 | 25.0 | 0.12 | 0.72 | 0.72 | 95 | 1003.9 |
| 20260507024530 | 51 | 159 | 10.0 | 21.0 | 0.17 | 0.72 | 0.72 | 96 | 1004.1 |
| 20260507023030 | 51 | 195 | 8.0 | 16.0 | 0.20 | 0.69 | 0.69 | 96 | 1004.5 |
| 20260507021527 | 50 | 178 | 8.0 | 15.0 | 0.20 | 0.62 | 0.62 | 95 | 1004.7 |
| 20260507020029 | 50 | 208 | 7.0 | 16.0 | 0.22 | 0.60 | 0.60 | 95 | 1004.7 |
| 20260507014529 | 50 | 179 | 11.0 | 20.0 | 0.20 | 0.55 | 0.55 | 95 | 1005.0 |
| 20260507013028 | 51 | 171 | 8.0 | 20.0 | 0.17 | 0.49 | 0.49 | 95 | 1005.4 |
| 20260507011531 | 50 | 190 | 10.0 | 17.0 | 0.15 | 0.42 | 0.42 | 94 | 1005.7 |
| 20260507010043 | 51 | 158 | 11.0 | 18.0 | 0.16 | 0.38 | 0.38 | 94 | 1005.8 |
| 20260507004533 | 52 | 159 | 8.0 | 20.0 | 0.18 | 0.35 | 0.35 | 94 | 1006.1 |
| 20260507003029 | 53 | 205 | 14.0 | 32.0 | 0.20 | 0.31 | 0.31 | 94 | 1006.4 |
| 20260507001531 | 52 | 182 | 7.0 | 20.0 | 0.19 | 0.27 | 0.27 | 94 | 1006.6 |
| 20260507000028 | 52 | 185 | 10.0 | 19.0 | 0.15 | 0.22 | 0.22 | 94 | 1006.7 |
| 20260506234531 | 53 | 184 | 11.0 | 21.0 | 0.09 | 0.16 | 0.16 | 93 | 1006.9 |
| 20260506233030 | 53 | 180 | 12.0 | 23.0 | 0.05 | 0.11 | 0.11 | 93 | 1007.0 |
| 20260506231531 | 53 | 178 | 9.0 | 20.0 | 0.03 | 0.08 | 0.08 | 94 | 1007.0 |
| 20260506230039 | 51 | 173 | 10.0 | 23.0 | 0.04 | 0.07 | 0.07 | 92 | 1006.8 |
| 20260506224536 | 52 | 205 | 9.0 | 21.0 | 0.05 | 0.07 | 0.07 | 92 | 1007.0 |
| 20260506223030 | 52 | 181 | 7.0 | 16.0 | 0.05 | 0.06 | 0.06 | 93 | 1007.2 |
| 20260506221528 | 52 | 188 | 11.0 | 18.0 | 0.04 | 0.05 | 0.05 | 93 | 1007.3 |
| 20260506220036 | 52 | 163 | 13.0 | 19.0 | 0.03 | 0.03 | 0.03 | 92 | 1007.7 |
| 20260506214529 | 52 | 163 | 8.0 | 20.0 | 0.02 | 0.02 | 0.02 | 92 | 1007.9 |
| 20260506213030 | 52 | 161 | 11.0 | 23.0 | 0.01 | 0.01 | 0.01 | 91 | 1007.9 |
| 20260506211533 | 53 | 193 | 9.0 | 25.0 | 0.01 | 0.01 | 0.01 | 90 | 1007.4 |
| 20260506210031 | 53 | 154 | 13.0 | 21.0 | 0.00 | 0.00 | 0.00 | 89 | 1008.4 |
| 20260506204534 | 53 | 204 | 8.0 | 24.0 | 0.00 | 0.00 | 0.00 | 88 | 1008.2 |
| 20260506203031 | 54 | 163 | 7.0 | 14.0 | 0.00 | 0.00 | 0.00 | 86 | 1008.1 |
| 20260506201537 | 55 | 170 | 7.0 | 14.0 | 0.00 | 0.00 | 0.00 | 87 | 1007.9 |
| 20260506200030 | 54 | 220 | 9.0 | 19.0 | 0.00 | 0.00 | 0.00 | 86 | 1008.0 |
| 20260506194528 | 55 | 163 | 13.0 | 33.0 | 0.00 | 0.00 | 0.00 | 86 | 1008.0 |
| 20260506193030 | 55 | 175 | 10.0 | 23.0 | 0.00 | 0.00 | 0.00 | 86 | 1008.0 |
| 20260506191530 | 55 | 181 | 14.0 | 25.0 | 0.00 | 0.00 | 0.00 | 85 | 1008.3 |
| 20260506190030 | 55 | 184 | 11.0 | 22.0 | 0.00 | 0.00 | 0.00 | 86 | 1008.2 |
| 20260506184532 | 54 | 202 | 10.0 | 23.0 | 0.00 | 0.00 | 0.00 | 87 | 1008.5 |
| 20260506183032 | 53 | 136 | 9.0 | 19.0 | 0.00 | 0.00 | 0.00 | 86 | 1008.6 |
| 20260506181531 | 54 | 152 | 11.0 | 23.0 | 0.00 | 0.00 | 0.00 | 86 | 1008.8 |
| 20260506180032 | 55 | 219 | 8.0 | 26.0 | 0.00 | 0.00 | 0.00 | 86 | 1008.9 |
| 20260506174533 | 55 | 234 | 9.0 | 22.0 | 0.00 | 0.00 | 0.00 | 85 | 1009.1 |
| 20260506173030 | 55 | 203 | 12.0 | 24.0 | 0.00 | 0.00 | 0.00 | 85 | 1009.2 |
| 20260506171539 | 56 | 197 | 12.0 | 22.0 | 0.00 | 0.00 | 0.00 | 83 | 1009.4 |
| 20260506170029 | 56 | 199 | 11.0 | 24.0 | 0.00 | 0.00 | 0.00 | 83 | 1009.5 |
| 20260506164531 | 57 | 143 | 13.0 | 25.0 | 0.00 | 0.00 | 0.00 | 83 | 1009.4 |
| 20260506163030 | 57 | 257 | 14.0 | 25.0 | 0.00 | 0.00 | 0.00 | 83 | 1009.8 |
| 20260506161532 | 58 | 215 | 12.0 | 25.0 | 0.00 | 0.00 | 0.00 | 83 | 1009.9 |
| 20260506160031 | 58 | 198 | 9.0 | 18.0 | 0.00 | 0.00 | 0.00 | 82 | 1009.7 |
| 20260506154534 | 57 | 206 | 13.0 | 23.0 | 0.00 | 0.00 | 0.00 | 84 | 1009.7 |
| 20260506153030 | 56 | 161 | 11.0 | 22.0 | 0.00 | 0.00 | 0.00 | 84 | 1009.5 |
| 20260506151533 | 56 | 148 | 11.0 | 22.0 | 0.00 | 0.00 | 0.00 | 86 | 1009.8 |
| 20260506150033 | 55 | 189 | 7.0 | 18.0 | 0.00 | 0.00 | 0.00 | 88 | 1010.1 |
| 20260506144531 | 54 | 218 | 7.0 | 16.0 | 0.00 | 0.00 | 0.00 | 89 | 1010.4 |
| 20260506143032 | 54 | 182 | 8.0 | 17.0 | 0.00 | 0.00 | 0.00 | 90 | 1010.7 |
| 20260506141532 | 52 | 158 | 8.0 | 16.0 | 0.00 | 0.00 | 0.00 | 91 | 1010.6 |
| 20260506140034 | 51 | 146 | 12.0 | 18.0 | 0.00 | 0.00 | 0.00 | 93 | 1010.5 |
| 20260506134533 | 50 | 157 | 14.0 | 21.0 | 0.00 | 0.00 | 0.00 | 93 | 1010.3 |
| 20260506133034 | 51 | 165 | 11.0 | 16.0 | 0.00 | 0.00 | 0.00 | 92 | 1010.3 |
| 20260506131534 | 50 | 168 | 9.0 | 16.0 | 0.00 | 0.00 | 0.00 | 91 | 1010.2 |
| 20260506130028 | 51 | 151 | 10.0 | 14.0 | 0.00 | 0.00 | 0.00 | 92 | 1010.3 |